owner,sensor,date,latitude,longitude,vertical_datum,direction_of_sea_water_velocity,sea_water_speed,upward_sea_water_velocity,qcFlag 
TABS,ioos:station:wmo:42043:1,2010-06-01T00:00:00Z,28.9818,-94.9186,2.0,19.81049768,26.34936432,-99999.0,'11111222,11111222,99999999' 
TABS,ioos:station:wmo:42043:1,2010-06-01T00:30:00Z,28.9818,-94.9186,2.0,37.78068171,25.54522656,-99999.0,'11111222,11111222,99999999' 
TABS,ioos:station:wmo:42043:1,2010-06-01T01:00:00Z,28.9818,-94.9186,2.0,48.38983775,22.48290462,-99999.0,'11111222,11111222,99999999' 
TABS,ioos:station:wmo:42043:1,2010-06-01T01:30:00Z,28.9818,-94.9186,2.0,60.03847956,29.51427621,-99999.0,'11111222,11111222,99999999' 
TABS,ioos:station:wmo:42043:1,2010-06-01T02:00:00Z,28.9818,-94.9186,2.0,58.96786233,27.27343946,-99999.0,'11111222,11111222,99999999' 
TABS,ioos:station:wmo:42043:1,2010-06-01T02:30:00Z,28.9818,-94.9186,2.0,57.97133599,28.60404517,-99999.0,'11111222,11111222,99999999' 
TABS,ioos:station:wmo:42043:1,2010-06-01T03:00:00Z,28.9818,-94.9186,2.0,62.58090552,30.90142068,-99999.0,'11111222,11111222,99999999' 
TABS,ioos:station:wmo:42043:1,2010-06-01T03:30:00Z,28.9818,-94.9186,2.0,61.17361358,33.66114971,-99999.0,'11111222,11111222,99999999' 
TABS,ioos:station:wmo:42043:1,2010-06-01T04:00:00Z,28.9818,-94.9186,2.0,52.67777889,31.91499491,-99999.0,'11111222,11111222,99999999' 
TABS,ioos:station:wmo:42043:1,2010-06-01T04:30:00Z,28.9818,-94.9186,2.0,51.64463544,37.33854978,-99999.0,'11111222,11111222,99999999' 
TABS,ioos:station:wmo:42043:1,2010-06-01T05:00:00Z,28.9818,-94.9186,2.0,47.29707095,35.63853252,-99999.0,'11111222,11111222,99999999' 
TABS,ioos:station:wmo:42043:1,2010-06-01T05:30:00Z,28.9818,-94.9186,2.0,45.84549608,37.38173351,-99999.0,'11111222,11111222,99999999' 
TABS,ioos:station:wmo:42043:1,2010-06-01T06:00:00Z,28.9818,-94.9186,2.0,54.33623453,38.00842012,-99999.0,'11111222,11111222,99999999' 
TABS,ioos:station:wmo:42043:1,2010-06-01T06:30:00Z,28.9818,-94.9186,2.0,50.32966684,37.45473268,-99999.0,'11111222,11111222,99999999' 
TABS,ioos:station:wmo:42043:1,2010-06-01T07:00:00Z,28.9818,-94.9186,2.0,54.30432501,42.55493508,-99999.0,'11111222,11111222,99999999' 
TABS,ioos:station:wmo:42043:1,2010-06-01T07:30:00Z,28.9818,-94.9186,2.0,51.10015093,42.85289488,-99999.0,'11111222,11111222,99999999' 
TABS,ioos:station:wmo:42043:1,2010-06-01T08:00:00Z,28.9818,-94.9186,2.0,54.99039585,42.51240407,-99999.0,'11111222,11111222,99999999' 
TABS,ioos:station:wmo:42043:1,2010-06-01T08:30:00Z,28.9818,-94.9186,2.0,62.58830778,40.5532847,-99999.0,'11111222,11111222,99999999' 
TABS,ioos:station:wmo:42043:1,2010-06-01T09:00:00Z,28.9818,-94.9186,2.0,61.27531652,42.009781,-99999.0,'11111222,11111222,99999999' 
TABS,ioos:station:wmo:42043:1,2010-06-01T09:30:00Z,28.9818,-94.9186,2.0,59.75985367,45.76804671,-99999.0,'11111222,11111222,99999999' 
TABS,ioos:station:wmo:42043:1,2010-06-01T10:00:00Z,28.9818,-94.9186,2.0,59.61552558,40.88563684,-99999.0,'11111222,11111222,99999999' 
TABS,ioos:station:wmo:42043:1,2010-06-01T10:30:00Z,28.9818,-94.9186,2.0,58.83638616,44.23318438,-99999.0,'11111222,11111222,99999999' 
TABS,ioos:station:wmo:42043:1,2010-06-01T11:00:00Z,28.9818,-94.9186,2.0,61.88324314,47.89177904,-99999.0,'11111222,11111222,99999999' 
TABS,ioos:station:wmo:42043:1,2010-06-01T11:30:00Z,28.9818,-94.9186,2.0,58.82298311,47.44198246,-99999.0,'11111222,11111222,99999999' 
TABS,ioos:station:wmo:42043:1,2010-06-01T12:00:00Z,28.9818,-94.9186,2.0,59.01700924,45.80555971,-99999.0,'11111222,11111222,99999999' 
TABS,ioos:station:wmo:42043:1,2010-06-01T12:30:00Z,28.9818,-94.9186,2.0,58.7394499,45.01555287,-99999.0,'11111222,11111222,99999999' 
TABS,ioos:station:wmo:42043:1,2010-06-01T13:00:00Z,28.9818,-94.9186,2.0,65.72654758,43.95599845,-99999.0,'11111222,11111222,99999999' 
TABS,ioos:station:wmo:42043:1,2010-06-01T13:30:00Z,28.9818,-94.9186,2.0,67.27089234,37.50237592,-99999.0,'11111222,11111222,99999999' 
TABS,ioos:station:wmo:42043:1,2010-06-01T14:00:00Z,28.9818,-94.9186,2.0,74.67293473,44.67912488,-99999.0,'11111222,11111222,99999999' 
TABS,ioos:station:wmo:42043:1,2010-06-01T14:30:00Z,28.9818,-94.9186,2.0,75.41408507,43.48136267,-99999.0,'11111222,11111222,99999999' 
TABS,ioos:station:wmo:42043:1,2010-06-01T15:00:00Z,28.9818,-94.9186,2.0,74.6416736,44.77914693,-99999.0,'11111222,11111222,99999999' 
TABS,ioos:station:wmo:42043:1,2010-06-01T15:30:00Z,28.9818,-94.9186,2.0,73.02362983,44.35266508,-99999.0,'11111222,11111222,99999999' 
TABS,ioos:station:wmo:42043:1,2010-06-01T16:00:00Z,28.9818,-94.9186,2.0,71.40534848,40.83148785,-99999.0,'11111222,11111222,99999999' 
TABS,ioos:station:wmo:42043:1,2010-06-01T16:30:00Z,28.9818,-94.9186,2.0,66.84628431,35.24922269,-99999.0,'11111222,11111222,99999999' 
TABS,ioos:station:wmo:42043:1,2010-06-01T17:00:00Z,28.9818,-94.9186,2.0,66.79501951,35.02336506,-99999.0,'11111222,11111222,99999999' 
TABS,ioos:station:wmo:42043:1,2010-06-01T17:30:00Z,28.9818,-94.9186,2.0,60.32269166,33.68909764,-99999.0,'11111222,11111222,99999999' 
TABS,ioos:station:wmo:42043:1,2010-06-01T18:00:00Z,28.9818,-94.9186,2.0,45.29221451,29.12610685,-99999.0,'11111222,11111222,99999999' 
TABS,ioos:station:wmo:42043:1,2010-06-01T18:30:00Z,28.9818,-94.9186,2.0,47.70534804,25.61874509,-99999.0,'11111222,11111222,99999999' 
TABS,ioos:station:wmo:42043:1,2010-06-01T19:00:00Z,28.9818,-94.9186,2.0,42.75300097,29.03491863,-99999.0,'11111222,11111222,99999999' 
TABS,ioos:station:wmo:42043:1,2010-06-01T19:30:00Z,28.9818,-94.9186,2.0,37.51318134,30.82394199,-99999.0,'11111222,11111222,99999999' 
TABS,ioos:station:wmo:42043:1,2010-06-01T20:00:00Z,28.9818,-94.9186,2.0,40.13027693,35.48342994,-99999.0,'11111222,11111222,99999999' 
TABS,ioos:station:wmo:42043:1,2010-06-01T20:30:00Z,28.9818,-94.9186,2.0,43.93118567,31.83948806,-99999.0,'11111222,11111222,99999999' 
TABS,ioos:station:wmo:42043:1,2010-06-01T21:00:00Z,28.9818,-94.9186,2.0,53.34654008,33.36823789,-99999.0,'11111222,11111222,99999999' 
TABS,ioos:station:wmo:42043:1,2010-06-01T21:30:00Z,28.9818,-94.9186,2.0,55.32277795,36.54075259,-99999.0,'11111222,11111222,99999999' 
TABS,ioos:station:wmo:42043:1,2010-06-01T22:00:00Z,28.9818,-94.9186,2.0,61.21742775,37.4464057,-99999.0,'11111222,11111222,99999999' 
TABS,ioos:station:wmo:42043:1,2010-06-01T22:30:00Z,28.9818,-94.9186,2.0,55.34969935,44.51539621,-99999.0,'11111222,11111222,99999999' 
TABS,ioos:station:wmo:42043:1,2010-06-01T23:00:00Z,28.9818,-94.9186,2.0,60.30322916,41.42017383,-99999.0,'11111222,11111222,99999999' 
TABS,ioos:station:wmo:42043:1,2010-06-01T23:30:00Z,28.9818,-94.9186,2.0,55.28602127,38.33313188,-99999.0,'11111222,11111222,99999999' 
TABS,ioos:station:wmo:42043:1,2010-06-02T00:00:00Z,28.9818,-94.9186,2.0,49.89583207,41.26172561,-99999.0,'11111222,11111222,99999999' 
TABS,ioos:station:wmo:42043:1,2010-06-02T00:30:00Z,28.9818,-94.9186,2.0,53.12160324,40.04200045,-99999.0,'11111222,11111222,99999999' 
TABS,ioos:station:wmo:42043:1,2010-06-02T01:00:00Z,28.9818,-94.9186,2.0,50.80910783,41.77827665,-99999.0,'11111222,11111222,99999999' 
TABS,ioos:station:wmo:42043:1,2010-06-02T01:30:00Z,28.9818,-94.9186,2.0,48.04092907,42.52163332,-99999.0,'11111222,11111222,99999999' 
TABS,ioos:station:wmo:42043:1,2010-06-02T02:00:00Z,28.9818,-94.9186,2.0,52.45908048,45.59112743,-99999.0,'11111222,11111222,99999999' 
TABS,ioos:station:wmo:42043:1,2010-06-02T02:30:00Z,28.9818,-94.9186,2.0,56.65612559,42.69882668,-99999.0,'11111222,11111222,99999999' 
TABS,ioos:station:wmo:42043:1,2010-06-02T03:00:00Z,28.9818,-94.9186,2.0,56.03379472,44.29887245,-99999.0,'11111222,11111222,99999999' 
TABS,ioos:station:wmo:42043:1,2010-06-02T03:30:00Z,28.9818,-94.9186,2.0,54.77115706,46.16493258,-99999.0,'11111222,11111222,99999999' 
TABS,ioos:station:wmo:42043:1,2010-06-02T04:00:00Z,28.9818,-94.9186,2.0,54.94536515,41.92503787,-99999.0,'11111222,11111222,99999999' 
TABS,ioos:station:wmo:42043:1,2010-06-02T04:30:00Z,28.9818,-94.9186,2.0,54.27604813,46.10521988,-99999.0,'11111222,11111222,99999999' 
TABS,ioos:station:wmo:42043:1,2010-06-02T05:00:00Z,28.9818,-94.9186,2.0,57.27594671,43.43365055,-99999.0,'11111222,11111222,99999999' 
TABS,ioos:station:wmo:42043:1,2010-06-02T05:30:00Z,28.9818,-94.9186,2.0,59.34186126,45.98799952,-99999.0,'11111222,11111222,99999999' 
TABS,ioos:station:wmo:42043:1,2010-06-02T06:00:00Z,28.9818,-94.9186,2.0,60.65792133,47.99766661,-99999.0,'11111222,11111222,99999999' 
TABS,ioos:station:wmo:42043:1,2010-06-02T06:30:00Z,28.9818,-94.9186,2.0,60.98600949,48.03883949,-99999.0,'11111222,11111222,99999999' 
TABS,ioos:station:wmo:42043:1,2010-06-02T07:00:00Z,28.9818,-94.9186,2.0,63.374386,50.71852226,-99999.0,'11111222,11111222,99999999' 
TABS,ioos:station:wmo:42043:1,2010-06-02T07:30:00Z,28.9818,-94.9186,2.0,66.40727855,50.19569802,-99999.0,'11111222,11111222,99999999' 
TABS,ioos:station:wmo:42043:1,2010-06-02T08:00:00Z,28.9818,-94.9186,2.0,63.84831772,49.59727815,-99999.0,'11111222,11111222,99999999' 
TABS,ioos:station:wmo:42043:1,2010-06-02T08:30:00Z,28.9818,-94.9186,2.0,69.50453773,52.06578339,-99999.0,'11111222,11111222,99999999' 
TABS,ioos:station:wmo:42043:1,2010-06-02T09:00:00Z,28.9818,-94.9186,2.0,71.19841264,52.87120294,-99999.0,'11111222,11111222,99999999' 
TABS,ioos:station:wmo:42043:1,2010-06-02T09:30:00Z,28.9818,-94.9186,2.0,68.82725507,52.30052581,-99999.0,'11111222,11111222,99999999' 
TABS,ioos:station:wmo:42043:1,2010-06-02T10:00:00Z,28.9818,-94.9186,2.0,70.56358353,53.37158888,-99999.0,'11111222,11111222,99999999' 
TABS,ioos:station:wmo:42043:1,2010-06-02T10:30:00Z,28.9818,-94.9186,2.0,68.38759192,56.30870359,-99999.0,'11111222,11111222,99999999' 
TABS,ioos:station:wmo:42043:1,2010-06-02T11:00:00Z,28.9818,-94.9186,2.0,70.72378478,54.91887198,-99999.0,'11111222,11111222,99999999' 
TABS,ioos:station:wmo:42043:1,2010-06-02T11:30:00Z,28.9818,-94.9186,2.0,71.72230156,55.32109363,-99999.0,'11111222,11111222,99999999' 
TABS,ioos:station:wmo:42043:1,2010-06-02T12:00:00Z,28.9818,-94.9186,2.0,69.15737208,51.93882941,-99999.0,'11111222,11111222,99999999' 
TABS,ioos:station:wmo:42043:1,2010-06-02T12:30:00Z,28.9818,-94.9186,2.0,70.83166821,53.1148049,-99999.0,'11111222,11111222,99999999' 
TABS,ioos:station:wmo:42043:1,2010-06-02T13:00:00Z,28.9818,-94.9186,2.0,76.66863485,53.42979038,-99999.0,'11111222,11111222,99999999' 
TABS,ioos:station:wmo:42043:1,2010-06-02T13:30:00Z,28.9818,-94.9186,2.0,74.85217044,52.00700049,-99999.0,'11111222,11111222,99999999' 
TABS,ioos:station:wmo:42043:1,2010-06-02T14:00:00Z,28.9818,-94.9186,2.0,77.63504481,55.38474158,-99999.0,'11111222,11111222,99999999' 
TABS,ioos:station:wmo:42043:1,2010-06-02T14:30:00Z,28.9818,-94.9186,2.0,78.34420516,51.3284502,-99999.0,'11111222,11111222,99999999' 
TABS,ioos:station:wmo:42043:1,2010-06-02T15:00:00Z,28.9818,-94.9186,2.0,80.28341203,51.48862593,-99999.0,'11111222,11111222,99999999' 
TABS,ioos:station:wmo:42043:1,2010-06-02T15:30:00Z,28.9818,-94.9186,2.0,80.6566205,50.69253693,-99999.0,'11111222,11111222,99999999' 
TABS,ioos:station:wmo:42043:1,2010-06-02T16:00:00Z,28.9818,-94.9186,2.0,77.43564528,52.40498545,-99999.0,'11111222,11111222,99999999' 
TABS,ioos:station:wmo:42043:1,2010-06-02T16:30:00Z,28.9818,-94.9186,2.0,80.09436689,48.65533681,-99999.0,'11111222,11111222,99999999' 
TABS,ioos:station:wmo:42043:1,2010-06-02T17:00:00Z,28.9818,-94.9186,2.0,83.93658813,52.35288435,-99999.0,'11111222,11111222,99999999' 
TABS,ioos:station:wmo:42043:1,2010-06-02T17:30:00Z,28.9818,-94.9186,2.0,85.67587356,57.162716,-99999.0,'11111222,11111222,99999999' 
TABS,ioos:station:wmo:42043:1,2010-06-02T18:00:00Z,28.9818,-94.9186,2.0,80.96215931,63.46797066,-99999.0,'11111222,11111222,99999999' 
TABS,ioos:station:wmo:42043:1,2010-06-02T18:30:00Z,28.9818,-94.9186,2.0,79.68399648,59.58316289,-99999.0,'11111222,11111222,99999999' 
TABS,ioos:station:wmo:42043:1,2010-06-02T19:00:00Z,28.9818,-94.9186,2.0,78.35715557,60.74995967,-99999.0,'11111222,11111222,99999999' 
TABS,ioos:station:wmo:42043:1,2010-06-02T19:30:00Z,28.9818,-94.9186,2.0,76.04095516,61.22817407,-99999.0,'11111222,11111222,99999999' 
TABS,ioos:station:wmo:42043:1,2010-06-02T20:00:00Z,28.9818,-94.9186,2.0,75.96607241,60.86674051,-99999.0,'11111222,11111222,99999999' 
TABS,ioos:station:wmo:42043:1,2010-06-02T20:30:00Z,28.9818,-94.9186,2.0,73.17315957,60.62576515,-99999.0,'11111222,11111222,99999999' 
TABS,ioos:station:wmo:42043:1,2010-06-02T21:00:00Z,28.9818,-94.9186,2.0,75.27455168,61.29318722,-99999.0,'11111222,11111222,99999999' 
TABS,ioos:station:wmo:42043:1,2010-06-02T21:30:00Z,28.9818,-94.9186,2.0,72.7710146,60.70387797,-99999.0,'11111222,11111222,99999999' 
TABS,ioos:station:wmo:42043:1,2010-06-02T22:00:00Z,28.9818,-94.9186,2.0,71.22091641,59.48667834,-99999.0,'11111222,11111222,99999999' 
TABS,ioos:station:wmo:42043:1,2010-06-02T22:30:00Z,28.9818,-94.9186,2.0,66.39466483,58.81100747,-99999.0,'11111222,11111222,99999999' 
TABS,ioos:station:wmo:42043:1,2010-06-02T23:00:00Z,28.9818,-94.9186,2.0,68.08487869,59.85529634,-99999.0,'11111222,11111222,99999999' 
TABS,ioos:station:wmo:42043:1,2010-06-02T23:30:00Z,28.9818,-94.9186,2.0,67.65844693,60.66379233,-99999.0,'11111222,11111222,99999999' 
TABS,ioos:station:wmo:42043:1,2010-06-03T00:00:00Z,28.9818,-94.9186,2.0,63.3135458,56.95725151,-99999.0,'11111222,11111222,99999999' 
TABS,ioos:station:wmo:42043:1,2010-06-03T00:30:00Z,28.9818,-94.9186,2.0,63.42534569,53.02164464,-99999.0,'11111222,11111222,99999999' 
TABS,ioos:station:wmo:42043:1,2010-06-03T01:00:00Z,28.9818,-94.9186,2.0,63.95686962,51.06496646,-99999.0,'11111222,11111222,99999999' 
TABS,ioos:station:wmo:42043:1,2010-06-03T01:30:00Z,28.9818,-94.9186,2.0,63.50916402,51.83209913,-99999.0,'11111222,11111222,99999999' 
TABS,ioos:station:wmo:42043:1,2010-06-03T02:00:00Z,28.9818,-94.9186,2.0,65.11783052,48.57940407,-99999.0,'11111222,11111222,99999999' 
TABS,ioos:station:wmo:42043:1,2010-06-03T02:30:00Z,28.9818,-94.9186,2.0,62.73941981,49.36260224,-99999.0,'11111222,11111222,99999999' 
TABS,ioos:station:wmo:42043:1,2010-06-03T03:00:00Z,28.9818,-94.9186,2.0,65.89635659,46.96497951,-99999.0,'11111222,11111222,99999999' 
TABS,ioos:station:wmo:42043:1,2010-06-03T03:30:00Z,28.9818,-94.9186,2.0,63.04395653,48.48802739,-99999.0,'11111222,11111222,99999999' 
TABS,ioos:station:wmo:42043:1,2010-06-03T04:00:00Z,28.9818,-94.9186,2.0,66.6753699,50.71460638,-99999.0,'11111222,11111222,99999999' 
TABS,ioos:station:wmo:42043:1,2010-06-03T04:30:00Z,28.9818,-94.9186,2.0,62.83399348,49.45560029,-99999.0,'11111222,11111222,99999999' 
TABS,ioos:station:wmo:42043:1,2010-06-03T05:00:00Z,28.9818,-94.9186,2.0,60.09548842,50.28511708,-99999.0,'11111222,11111222,99999999' 
TABS,ioos:station:wmo:42043:1,2010-06-03T05:30:00Z,28.9818,-94.9186,2.0,63.86537964,55.37107729,-99999.0,'11111222,11111222,99999999' 
TABS,ioos:station:wmo:42043:1,2010-06-03T06:00:00Z,28.9818,-94.9186,2.0,59.69035942,55.73895675,-99999.0,'11111222,11111222,99999999' 
TABS,ioos:station:wmo:42043:1,2010-06-03T06:30:00Z,28.9818,-94.9186,2.0,62.79862379,55.56524453,-99999.0,'11111222,11111222,99999999' 
TABS,ioos:station:wmo:42043:1,2010-06-03T07:00:00Z,28.9818,-94.9186,2.0,62.21791036,55.37306385,-99999.0,'11111222,11111222,99999999' 
TABS,ioos:station:wmo:42043:1,2010-06-03T07:30:00Z,28.9818,-94.9186,2.0,61.4767698,61.38013522,-99999.0,'11111222,11111222,99999999' 
TABS,ioos:station:wmo:42043:1,2010-06-03T08:00:00Z,28.9818,-94.9186,2.0,68.58479729,73.29004366,-99999.0,'11111222,11111222,99999999' 
TABS,ioos:station:wmo:42043:1,2010-06-03T08:30:00Z,28.9818,-94.9186,2.0,70.85983217,73.99025341,-99999.0,'11111222,11111222,99999999' 
TABS,ioos:station:wmo:42043:1,2010-06-03T09:00:00Z,28.9818,-94.9186,2.0,87.89898348,58.09905765,-99999.0,'11111222,11111222,99999999' 
TABS,ioos:station:wmo:42043:1,2010-06-03T09:30:00Z,28.9818,-94.9186,2.0,79.89108462,48.65533475,-99999.0,'11111222,11111222,99999999' 
TABS,ioos:station:wmo:42043:1,2010-06-03T10:00:00Z,28.9818,-94.9186,2.0,78.83233709,47.3974936,-99999.0,'11111222,11111222,99999999' 
TABS,ioos:station:wmo:42043:1,2010-06-03T10:30:00Z,28.9818,-94.9186,2.0,69.84593071,60.39822928,-99999.0,'11111222,11111222,99999999' 
TABS,ioos:station:wmo:42043:1,2010-06-03T11:00:00Z,28.9818,-94.9186,2.0,71.80867374,66.94602303,-99999.0,'11111222,11111222,99999999' 
TABS,ioos:station:wmo:42043:1,2010-06-03T11:30:00Z,28.9818,-94.9186,2.0,76.44071866,70.8034526,-99999.0,'11111222,11111222,99999999' 
TABS,ioos:station:wmo:42043:1,2010-06-03T12:00:00Z,28.9818,-94.9186,2.0,82.81021359,64.71888519,-99999.0,'11111222,11111222,99999999' 
TABS,ioos:station:wmo:42043:1,2010-06-03T12:30:00Z,28.9818,-94.9186,2.0,90.92898198,56.12737746,-99999.0,'11111222,11111222,99999999' 
TABS,ioos:station:wmo:42043:1,2010-06-03T13:00:00Z,28.9818,-94.9186,2.0,92.45690723,51.08696213,-99999.0,'11111222,11111222,99999999' 
TABS,ioos:station:wmo:42043:1,2010-06-03T13:30:00Z,28.9818,-94.9186,2.0,90.78736028,37.11350428,-99999.0,'11111222,11111222,99999999' 
TABS,ioos:station:wmo:42043:1,2010-06-03T14:00:00Z,28.9818,-94.9186,2.0,98.74614181,37.35436788,-99999.0,'11111222,11111222,99999999' 
TABS,ioos:station:wmo:42043:1,2010-06-03T14:30:00Z,28.9818,-94.9186,2.0,92.20997695,35.78661761,-99999.0,'11111222,11111222,99999999' 
TABS,ioos:station:wmo:42043:1,2010-06-03T15:00:00Z,28.9818,-94.9186,2.0,99.53280692,32.06275877,-99999.0,'11111222,11111222,99999999' 
TABS,ioos:station:wmo:42043:1,2010-06-03T15:30:00Z,28.9818,-94.9186,2.0,91.74843543,25.89205477,-99999.0,'11111222,11111222,99999999' 
TABS,ioos:station:wmo:42043:1,2010-06-03T16:00:00Z,28.9818,-94.9186,2.0,96.31995572,28.16114522,-99999.0,'11111222,11111222,99999999' 
TABS,ioos:station:wmo:42043:1,2010-06-03T16:30:00Z,28.9818,-94.9186,2.0,91.52817884,23.24826875,-99999.0,'11111222,11111222,99999999' 
TABS,ioos:station:wmo:42043:1,2010-06-03T17:00:00Z,28.9818,-94.9186,2.0,97.85901598,30.78918804,-99999.0,'11111222,11111222,99999999' 
TABS,ioos:station:wmo:42043:1,2010-06-03T17:30:00Z,28.9818,-94.9186,2.0,91.06236617,29.12500644,-99999.0,'11111222,11111222,99999999' 
TABS,ioos:station:wmo:42043:1,2010-06-03T18:00:00Z,28.9818,-94.9186,2.0,105.627476,29.95742646,-99999.0,'11111222,11111222,99999999' 
TABS,ioos:station:wmo:42043:1,2010-06-03T18:30:00Z,28.9818,-94.9186,2.0,93.69672204,27.60744284,-99999.0,'11111222,11111222,99999999' 
TABS,ioos:station:wmo:42043:1,2010-06-03T19:00:00Z,28.9818,-94.9186,2.0,82.95319289,18.17730728,-99999.0,'11111222,11111222,99999999' 
TABS,ioos:station:wmo:42043:1,2010-06-03T19:30:00Z,28.9818,-94.9186,2.0,76.92246236,21.74393709,-99999.0,'11111222,11111222,99999999' 
TABS,ioos:station:wmo:42043:1,2010-06-03T20:00:00Z,28.9818,-94.9186,2.0,88.2497777,23.9011506,-99999.0,'11111222,11111222,99999999' 
TABS,ioos:station:wmo:42043:1,2010-06-03T20:30:00Z,28.9818,-94.9186,2.0,87.14907804,24.93085638,-99999.0,'11111222,11111222,99999999' 
TABS,ioos:station:wmo:42043:1,2010-06-03T21:00:00Z,28.9818,-94.9186,2.0,82.81285755,29.73362406,-99999.0,'11111222,11111222,99999999' 
TABS,ioos:station:wmo:42043:1,2010-06-03T21:30:00Z,28.9818,-94.9186,2.0,72.63003644,29.94561738,-99999.0,'11111222,11111222,99999999' 
TABS,ioos:station:wmo:42043:1,2010-06-03T22:00:00Z,28.9818,-94.9186,2.0,68.37825108,34.35752028,-99999.0,'11111222,11111222,99999999' 
TABS,ioos:station:wmo:42043:1,2010-06-03T22:30:00Z,28.9818,-94.9186,2.0,72.25989434,38.59527432,-99999.0,'11111222,11111222,99999999' 
TABS,ioos:station:wmo:42043:1,2010-06-03T23:00:00Z,28.9818,-94.9186,2.0,74.54965711,35.77277317,-99999.0,'11111222,11111222,99999999' 
TABS,ioos:station:wmo:42043:1,2010-06-03T23:30:00Z,28.9818,-94.9186,2.0,81.29114413,33.88062868,-99999.0,'11111222,11111222,99999999' 
TABS,ioos:station:wmo:42043:1,2010-06-04T00:00:00Z,28.9818,-94.9186,2.0,78.13870933,29.14224597,-99999.0,'11111222,11111222,99999999' 
TABS,ioos:station:wmo:42043:1,2010-06-04T00:30:00Z,28.9818,-94.9186,2.0,75.74893169,32.98507693,-99999.0,'11111222,11111222,99999999' 
TABS,ioos:station:wmo:42043:1,2010-06-04T01:00:00Z,28.9818,-94.9186,2.0,81.06177334,33.79033738,-99999.0,'11111222,11111222,99999999' 
TABS,ioos:station:wmo:42043:1,2010-06-04T01:30:00Z,28.9818,-94.9186,2.0,81.86090153,35.95213763,-99999.0,'11111222,11111222,99999999' 
TABS,ioos:station:wmo:42043:1,2010-06-04T02:00:00Z,28.9818,-94.9186,2.0,77.34599944,38.710248,-99999.0,'11111222,11111222,99999999' 
TABS,ioos:station:wmo:42043:1,2010-06-04T02:30:00Z,28.9818,-94.9186,2.0,73.24569311,37.84660751,-99999.0,'11111222,11111222,99999999' 
TABS,ioos:station:wmo:42043:1,2010-06-04T03:00:00Z,28.9818,-94.9186,2.0,72.93499932,44.70841084,-99999.0,'11111222,11111222,99999999' 
TABS,ioos:station:wmo:42043:1,2010-06-04T03:30:00Z,28.9818,-94.9186,2.0,79.44864365,38.6637621,-99999.0,'11111222,11111222,99999999' 
TABS,ioos:station:wmo:42043:1,2010-06-04T04:00:00Z,28.9818,-94.9186,2.0,89.24507385,34.91303052,-99999.0,'11111222,11111222,99999999' 
TABS,ioos:station:wmo:42043:1,2010-06-04T04:30:00Z,28.9818,-94.9186,2.0,89.24507385,34.91303052,-99999.0,'11111222,11111222,99999999' 
TABS,ioos:station:wmo:42043:1,2010-06-04T05:00:00Z,28.9818,-94.9186,2.0,93.07544785,30.75429401,-99999.0,'11111222,11111222,99999999' 
TABS,ioos:station:wmo:42043:1,2010-06-04T05:30:00Z,28.9818,-94.9186,2.0,91.58388804,32.92257888,-99999.0,'11111222,11111222,99999999' 
TABS,ioos:station:wmo:42043:1,2010-06-04T06:00:00Z,28.9818,-94.9186,2.0,100.763078,32.87840629,-99999.0,'11111222,11111222,99999999' 
TABS,ioos:station:wmo:42043:1,2010-06-04T06:30:00Z,28.9818,-94.9186,2.0,105.1175645,30.32963073,-99999.0,'11111222,11111222,99999999' 
TABS,ioos:station:wmo:42043:1,2010-06-04T07:00:00Z,28.9818,-94.9186,2.0,96.92482825,29.11237022,-99999.0,'11111222,11111222,99999999' 
TABS,ioos:station:wmo:42043:1,2010-06-04T07:30:00Z,28.9818,-94.9186,2.0,90.11961495,23.95005219,-99999.0,'11111222,11111222,99999999' 
TABS,ioos:station:wmo:42043:1,2010-06-04T08:00:00Z,28.9818,-94.9186,2.0,83.26586427,28.90944828,-99999.0,'11111222,11111222,99999999' 
TABS,ioos:station:wmo:42043:1,2010-06-04T08:30:00Z,28.9818,-94.9186,2.0,95.25054649,32.34572151,-99999.0,'11111222,11111222,99999999' 
TABS,ioos:station:wmo:42043:1,2010-06-04T09:00:00Z,28.9818,-94.9186,2.0,93.38088313,27.97869547,-99999.0,'11111222,11111222,99999999' 
TABS,ioos:station:wmo:42043:1,2010-06-04T09:30:00Z,28.9818,-94.9186,2.0,104.2720667,23.56738636,-99999.0,'11111222,11111222,99999999' 
TABS,ioos:station:wmo:42043:1,2010-06-04T10:00:00Z,28.9818,-94.9186,2.0,99.96595974,24.49968367,-99999.0,'11111222,11111222,99999999' 
TABS,ioos:station:wmo:42043:1,2010-06-04T10:30:00Z,28.9818,-94.9186,2.0,87.43842652,27.29727642,-99999.0,'11111222,11111222,99999999' 
TABS,ioos:station:wmo:42043:1,2010-06-04T11:00:00Z,28.9818,-94.9186,2.0,82.74635468,22.09684367,-99999.0,'11111222,11111222,99999999' 
TABS,ioos:station:wmo:42043:1,2010-06-04T11:30:00Z,28.9818,-94.9186,2.0,81.09134388,28.41275946,-99999.0,'11111222,11111222,99999999' 
TABS,ioos:station:wmo:42043:1,2010-06-04T12:00:00Z,28.9818,-94.9186,2.0,86.78733373,25.15954093,-99999.0,'11111222,11111222,99999999' 
TABS,ioos:station:wmo:42043:1,2010-06-04T12:30:00Z,28.9818,-94.9186,2.0,72.84629087,30.54891487,-99999.0,'11111222,11111222,99999999' 
TABS,ioos:station:wmo:42043:1,2010-06-04T13:00:00Z,28.9818,-94.9186,2.0,78.11239482,28.7873896,-99999.0,'11111222,11111222,99999999' 
TABS,ioos:station:wmo:42043:1,2010-06-04T13:30:00Z,28.9818,-94.9186,2.0,80.39746499,29.55409447,-99999.0,'11111222,11111222,99999999' 
TABS,ioos:station:wmo:42043:1,2010-06-04T14:00:00Z,28.9818,-94.9186,2.0,76.59167592,26.77996639,-99999.0,'11111222,11111222,99999999' 
TABS,ioos:station:wmo:42043:1,2010-06-04T14:30:00Z,28.9818,-94.9186,2.0,79.07195409,35.60567511,-99999.0,'11111222,11111222,99999999' 
TABS,ioos:station:wmo:42043:1,2010-06-04T15:00:00Z,28.9818,-94.9186,2.0,74.27993589,34.58353655,-99999.0,'11111222,11111222,99999999' 
TABS,ioos:station:wmo:42043:1,2010-06-04T15:30:00Z,28.9818,-94.9186,2.0,63.70728963,32.93765323,-99999.0,'11111222,11111222,99999999' 